This demonstration page uses our WeatherBlox Daily Observations layout. Learn more.

Left ArrowRight Arrow

39.08367, -84.50855

Hourly Observations for June 24, 2015

Temp ( °F °C ) Dew Point ( °F °C ) Humidity (%) Winds ( mph kmh ) Pressure ( in mb ) Visibility ( mi km ) Precip ( " mm )
12:53 am 00:53 Clear 65 18.3 60 15.6 84 84 N N/A 30.08 1019 10 16.0934 N/A
1:53 am 01:53 Clear 63 17.2 60 15.6 90 90 N N/A 30.09 1019 10 16.0934 N/A
2:53 am 02:53 Clear 62 16.7 60 15.6 93 93 N N/A 30.1 1019 10 16.0934 N/A
3:53 am 03:53 Clear 60 15.6 59 15 96 96 N N/A 30.11 1020 10 16.0934 N/A
4:53 am 04:53 Clear 61 16.1 59 15 93 93 N N/A 30.12 1020 10 16.0934 N/A
5:53 am 05:53 Mostly Clear 62 16.7 60 15.6 93 93 N N/A 30.14 1021 10 16.0934 N/A
6:53 am 06:53 Mostly Sunny 61 16.1 60 15.6 97 97 N N/A 30.14 1021 10 16.0934 N/A
7:53 am 07:53 Sunny 65 18.3 62 16.7 90 90 N N/A 30.14 1021 10 16.0934 N/A
8:53 am 08:53 Sunny 68 20 61 16.1 78 78 N N/A 30.16 1021 10 16.0934 N/A
9:53 am 09:53 Sunny 72 22.2 60 15.6 66 66 N N/A 30.16 1022 10 16.0934 N/A
10:53 am 10:53 Sunny 75 23.9 60 15.6 60 60 E 5 7 30.15 1021 10 16.0934 N/A
11:53 am 11:53 Sunny 77 25 59 15 54 54 N N/A 30.15 1021 10 16.0934 N/A
12:53 pm 12:53 Sunny 79 26.1 54 12.2 42 42 N N/A 30.16 1021 10 16.0934 N/A
1:53 pm 13:53 Sunny 81 27.2 53 11.7 38 38 ESE 5 7 30.14 1021 10 16.0934 N/A
2:53 pm 14:53 Sunny 81 27.2 50 10 34 34 WSW 3 6 30.14 1021 10 16.0934 N/A
3:53 pm 15:53 Sunny 82 27.8 55 12.8 40 40 NW 8 13 30.16 1021 10 16.0934 N/A
4:53 pm 16:53 Sunny 80 26.7 58 14.4 47 47 VRB 3 6 30.12 1020 10 16.0934 N/A
5:53 pm 17:53 Sunny 81 27.2 59 15 47 47 N N/A 30.09 1019 10 16.0934 N/A
6:53 pm 18:53 Sunny 81 27.2 58 14.4 45 45 SSW 3 6 30.06 1018 10 16.0934 N/A
7:53 pm 19:53 Mostly Sunny 78 25.6 60 15.6 54 54 SSW 5 7 30.1 1019 10 16.0934 N/A
8:53 pm 20:53 Sunny 71 21.7 63 17.2 76 76 SSW 7 11 30.09 1019 10 16.0934 N/A
9:53 pm 21:53 Clear 72 22.2 62 16.7 71 71 N N/A 30.1 1019 10 16.0934 N/A
10:53 pm 22:53 Clear 69 20.6 62 16.7 78 78 N N/A 30.11 1020 10 16.0934 N/A
11:53 pm 23:53 Clear 67 19.4 61 16.1 81 81 N N/A 30.1 1019 10 16.0934 N/A

Powered by AerisWeather